Location: River House Observatory
(37.8577°N, 76.3548°W)
Time: 22:43:08
(UTC-05:00)

Hubble Space Telescope - Pass Details

Date: 25 January 2018
Orbit: 537 x 541 km, 28.5° (Epoch: 24 February)

Event Time Altitude Azimuth Distance (km) Brightness Sun altitude
Rises 18:32:00 0° 231° (SW) 2,666 5.6 -14.1°
Reaches altitude 10° 18:34:49 10° 212° (SSW) 1,777 4.1 -14.6°
Maximum altitude 18:37:36 18° 169° (S) 1,359 2.8 -15.2°
Enters shadow 18:39:43 13° 134° (SE) 1,615 2.9 -15.6°
